Location: Nashville
(36.1660°N, 86.7840°W)
Time: 17:52:04
(UTC-06:00)

Vanguard 1 Rocket - Visible Passes

Search period start: 22 January 2022 00:00
Search period end: 01 February 2022 00:00
Orbit: 651 x 4224 km, 34.3° (Epoch: 22 January)

Date Brightness Start Highest point End Pass type
(mag) Time Alt. Az. Time Alt. Az. Time Alt. Az.
22 Jan 9.0 17:39:44 10° W 17:51:37 55° SSW 17:57:54 10° SE visible
22 Jan 10.0 20:14:29 10° SW 20:15:06 10° SW 20:15:43 10° SW visible
23 Jan 9.6 18:57:18 10° W 19:04:48 26° SW 19:09:41 10° SSE visible
24 Jan 9.4 17:42:15 10° W 17:54:04 46° SSW 18:00:29 10° SE visible
25 Jan 9.9 19:00:30 10° W 19:06:57 19° SW 19:11:28 10° S visible
26 Jan 9.8 17:44:49 10° W 17:56:22 38° SW 18:02:52 10° SSE visible
27 Jan 10.3 19:04:20 10° W 19:08:57 14° SW 19:12:34 10° SSW visible
28 Jan 10.1 17:47:32 10° W 17:58:31 31° SW 18:05:01 10° SSE visible
30 Jan 10.3 17:50:29 10° W 18:00:29 24° SW 18:06:51 10° S visible
